Погода в Большом Захарьевском

Россия / Смоленская область     54°41′46″N   33°51′29″E
темп.,
°C
ветер,
м/с
пор.,
м/с
влажн.,
%
обл.,
%
осадки,
мм/ч
давл.,
гПа
погр.,
м
4 июля, пн
пн400:00+19зсз1271100 0.0 101713
03:00+17ссз118374 0.0 101711
06:00+18ссз117941 0.0 101711
09:00+25ссз015376 0.0 1017366
12:00+29зсз114024 0.0 10161438
15:00+29з224077 0.0 10151620
18:00+29з224830 0.0 10141145
21:00+22ссз117594 0.2 101432
5 июля, вт
вт500:00+17всв1195100 2.4 101617
03:00+17зюз1191100 2.7 101511
06:00+18юз1193100 0.0 101519
09:00+24юз236533 0.0 1015437
12:00+27зюз34475 0.4 10151499
15:00+27зюз45471 0.4 10151521
18:00+26з355619 0.0 1014803
21:00+20юз229038 0.4 101442
6 июля, ср
ср600:00+17зсз229598 0.2 101531
03:00+16зюз2296100 0.2 101523
06:00+17з129464 0.0 101583
09:00+22з126978 0.0 1015459
12:00+26з235181 0.0 10141409
15:00+28юз2340100 0.0 10131830
18:00+18зсз3697100 1.5 1013160
21:00+17ссв239999 6.9 1013132
7 июля, чт
чт700:00+15сз3599100 0.4 1013219
03:00+13ссз3797100 0.7 1014279
06:00+14ссз279798 0.0 1015287
09:00+15ссз248896 0.0 1015262
12:00+16ссз2378100 0.0 1016253
15:00+18ссз2369100 0.0 1016252
18:00+21ссв2248100 0.0 1016802
21:00+16ссв22715 0.0 101536
8 июля, пт
пт800:00+14св1276100 0.0 101618
03:00+14св118090 0.1 101520
06:00+16всв139994 2.4 1014116
09:00+18ююв1498100 6.4 1014399
12:00+21юз347776 0.1 1014714
15:00+24юз246610 0.3 1014806
18:00+23зюз2371100 0.6 1013535
21:00+18ссв1191100 1.8 101312